BREEZE-M R/B, 37827

Orbit data source: Space-Track

BREEZE-M R/B, 37827 is space debris in HEO originally from a launch on Thu, 29 Sep 2011 UTC launched from the Tyuratam Missile And Space Complex (TTMTR). Debris objects in space refer to the collection of defunct objects orbiting the Earth. Examples of debris include non-operational satellites, rocket bodies, and fragments generated from explosions, collisions, or faulty payload assembly.

Loading next visibility...
Identifier
37827, 2011-054B
Orbit
HEO
Country
Flag of CISCIS
Related business
Manufacturer
Khrunichev
Mission
Spacecraft
Bus & Motor
BRIZ, Unknown motor
Mass
~1,600 kg wet, 1,600 kg dry
Launch date (UTC)
2011-09-29 (14 years ago)
Launch vehicle
Unknown
Launch site
Tyuratam Missile And Space Complex (TTMTR)
Object type
Payload
Rocket body
Debris
Shape & HBR
Cyl, 2.0 m
Radar Cross Section
14.451 m², Large (>1 m²)

Expand to show TLE details & history
Last TLE update: 16 hours ago

TLE from 16 hours ago
0 BREEZE-M R/B
1 37827U 11054B   25260.57544663 -.00000295  00000-0  00000-0 0  9990
2 37827  17.8739 252.2492 5515272 326.8418 298.4466  2.07657095104723
Epoch: 2025-09-17T13:48Z
TLE epoch observation values (Epoch: 2025-09-17T13:48:38.588Z)
Latitude
-6.29746°
Longitude
-111.6877°
Altitude
20,301.507 km
Speed
3.811 km/s
True Right ascension
06h 08m 53s
True Declination
-6° 17' 15"
Sunlit
Object was in daylight at epoch
Visualization orbit readout
Latitude
Unknown
Longitude
Unknown
Altitude
Unknown
Speed
Unknown
Apparent Right ascension
Unknown
Apparent Declination
Unknown
Sunlit
N/A
Visualization observer readout
Local Sidereal Time
22:53:21
Azimuth
Unknown
Elevation
Unknown
Doppler factor
Unknown
Orbital elements
Apogee altitude
33,891.001 km
Perigee altitude
5,261.758 km
Semi-major axis
25,954.516 km
Eccentricity
0.55153
Inclination
17.8739°
RAAN
252.2492°
Arg. of periapsis
326.8418°
True anomaly
233.97432°
Mean anomaly
298.4466°
Eccentric anomaly
266.89287°
Mean motion
0.51907 °/min
Orbital period
693.55 mins
BSTAR
0
Loading maneuver chart data...
Computing Atmospheric mass density...
Loading historical data...
Loading historical data...
Loading historical data...
Loading historical data...
Loading historical data...
Loading historical data...
Loading historical data...
Other satellites on launch #54 in the year 2011 (2011-09-29 UTC)

Documentation

Showing up to 5 results
|